www.pogodaiklimat.ru

Погода и климат >> Архив погоды >> Канада >> Dubawnt Lake


ПОГОДА в Dubawnt Lake

  • Прогноз погоды в Dubawnt Lake
  • Монитор погоды в Dubawnt Lake
  • Климат города

АРХИВ ПОГОДЫ в Dubawnt Lake

Время (UTC), дата Ветер
(напр.,м/с)
 
Видим.   Явления Облачность Т
(С)
Тd
(С)
f
(%)
Тe
(С)
Тes
(С)
Комфортность P
(гПа)
Po
(гПа)
Тmin
(С)
Tmax
(С)
R
(мм)
R24
(мм)
S
(см)
00 12.01 З 4 16 км ясно -30.3 -33.7 72 -41 -41 опасность
обморожения
1028.8 960.6 -33.2 -28.3
03 12.01 З 3 16 км ясно -30.4 -33.8 72 -39 -39 опасность
обморожения
1029.0 960.8
06 12.01 З 3 16 км ясно -32.2 -35.7 71 -42 -42 опасность
обморожения
1030.0 961.8 -33.2 -28.3 7
09 12.01 З 3 4800 м слаб. снег ясно -32.5 -36.1 70 -43 -43 опасность
обморожения
1031.2 963.0
12 12.01 З 4 14 км слаб. снег ясно -32.6 -36.1 71 -44 -44 опасность
обморожения
1033.2 964.7 -33.1 -28.3
15 12.01 З 5 16 км ясно -32.3 -35.8 71 -45 -45 опасность
обморожения
1035.1 966.5
18 12.01 З 4 16 км ясно -29.3 -32.7 72 -41 -40 опасность
обморожения
1036.1 967.5 -33.1 -29.3
21 12.01 З 4 16 км ясно -26.7 -30.5 70 -37 -37 опасность
обморожения
1036.6 968.2
00 13.01 ЮЗ 3 16 км ясно -30.2 -33.2 75 -39 -39 опасность
обморожения
1037.2 968.5 -33.1 -26.7
03 13.01 ЮЗ 3 16 км ясно -32.2 -35.1 75 -42 -42 опасность
обморожения
1035.7 966.9
06 13.01 ЮЗ 1 16 км ясно -31.7 -34.9 73 -36 -36 опасность
обморожения
1033.3 965.0 -34.5 -26.7
09 13.01 Ю 1 16 км ясно -31.5 -34.8 72 -33 -33 опасность
обморожения
1030.2 962.3
12 13.01 З 1 16 км ясно -36.7 -40.3 69 -38 -38 опасность
обморожения
1028.1 959.6 -37.8 -26.7
15 13.01 ЮЗ 2 16 км ясно -32.9 -36.0 74 -41 -41 опасность
обморожения
1024.7 956.6
18 13.01 ЮЗ 3 16 км ясно -28.5 -31.6 75 -38 -38 опасность
обморожения
1022.7 955.1 -38.9 -28.5
21 13.01 З 3 16 км 9/0
[]
-24.1 -26.9 78 -32 -32 опасность
обморожения
1021.2 954.1
00 14.01 СЗ 2 16 км ясно -27.0 -30.0 76 -34 -34 опасность
обморожения
1024.2 956.3 -38.9 -24.0
03 14.01 СЗ 2 16 км 10/10 300 м
[]
-26.9 -29.8 76 -34 -34 опасность
обморожения
1024.9 957.2
06 14.01 СЗ 4 16 км слаб. снег ясно -28.3 -31.3 75 -39 -39 опасность
обморожения
1027.1 959.5 -38.9 -24.0
09 14.01 СЗ 4 6000 м слаб. снег ясно -29.8 -33.1 73 -41 -41 опасность
обморожения
1030.6 963.0
12 14.01 СЗ 5 16 км 10/10 1000 м
[]
-30.4 -33.8 72 -43 -43 опасность
обморожения
1033.3 965.3 -31.4 -24.0 0.0
15 14.01 СЗ 3 16 км 9/9 1000 м
[]
-29.7 -33.1 72 -39 -39 опасность
обморожения
1036.4 968.2
18 14.01 СЗ 4 16 км ясно -29.5 -32.9 72 -41 -41 опасность
обморожения
1040.2 971.7 -31.4 -28.3
21 14.01 СЗ 3 16 км 3/3 1000 м
[]
-28.7 -32.3 71 -38 -38 опасность
обморожения
1043.3 974.5
00 15.01 З 4 16 км ясно -31.6 -35.1 71 -43 -43 опасность
обморожения
1046.6 977.3 -31.6 -28.6
03 15.01 З 2 16 км ясно -34.3 -37.9 70 -41 -41 опасность
обморожения
1047.7 978.2
06 15.01 Ю 2 16 км ясно -34.2 -37.8 70 -41 -41 опасность
обморожения
1048.7 979.1 -35.0 -28.3
09 15.01 Ю 1 16 км ясно -36.9 -40.8 67 -39 -39 опасность
обморожения
1049.0 979.2
12 15.01 ЮЗ 3 16 км ясно -33.3 -36.7 71 -43 -43 опасность
обморожения
1047.2 977.6 -37.0 -28.3
15 15.01 ЮЗ 4 16 км ясно -29.4 -32.7 73 -40 -40 опасность
обморожения
1045.4 976.0
18 15.01 ЮЗ 5 16 км 10/0
[]
-22.9 -26.2 74 -33 -33 опасность
обморожения
1042.4 973.8 -37.0 -22.9
21 15.01 ЮЗ 6 16 км ясно -18.7 -22.7 71 -29 -29 1038.0 969.8
00 16.01 ЮЗ 5 16 км 3/0
[]
-17.4 -21.6 70 -26 -26 1034.6 967.0 -37.0 -17.0
03 16.01 ЮЗ 5 16 км ясно -18.2 -21.8 73 -28 -28 1030.7 963.6
06 16.01 ЮЗ 5 16 км ясно -17.2 -21.3 70 -27 -27 1027.6 961.2 -37.0 -17.0 21
09 16.01 ЮЗ 4 16 км ясно -16.7 -19.5 79 -25 -25 1023.8 958.0
12 16.01 ЮЗ 4 16 км ясно -15.6 -18.9 76 -24 -24 1020.3 954.9 -18.3 -17.0
15 16.01 ЮЗ 3 16 км ясно -17.1 -19.5 82 -23 -23 1017.9 952.5
18 16.01 ЮЗ 4 16 км ясно -11.2 -15.1 73 -18 -18 1015.6 950.8 -22.9 -11.2
21 16.01 З 3 16 км ясно -8.7 -13.2 70 -15 -15 1013.1 948.7
00 17.01 З 2 16 км ясно -14.8 -16.1 90 -20 -20 1012.2 947.5 -19.7 -8.4
03 17.01 ЮЗ 1 16 км ясно -18.9 -20.9 84 -22 -22 1011.1 946.1
06 17.01 ЮЗ 1 16 км ясно -23.0 -25.8 78 -26 -26 1010.2 945.4 -23.5 -8.4
09 17.01 В 1 16 км ясно -23.7 -26.4 78 -27 -27 1009.5 944.9
12 17.01 ЮЗ 1 16 км ясно -23.7 -26.2 80 -27 -27 1009.8 944.7 -24.7 -8.4
15 17.01 В 1 16 км 5/5 200 м
[]
-25.3 -28.0 78 -29 -29 1010.3 944.8
18 17.01 В 3 16 км слаб. снег 10/10 50 м
[]
-15.7 -17.3 87 -23 -23 1009.9 944.8 -25.7 -15.7
21 17.01 В 2 16 км 10/10 200 м
[]
-12.7 -14.2 89 -17 -17 1009.2 944.3
00 18.01 0 н/о н/о -14.2 -15.8 88 1009.6 944.6 -25.7 -12.6
03 18.01 ЮВ 2 16 км слаб. снег 10/10 100 м
[]
-13.5 -14.9 89 -17 -17 1009.4 944.3
06 18.01 ЮВ 2 16 км слаб. снег 10/10 100 м
[]
-13.3 -14.8 88 -18 -18 1007.7 943.4 -25.7 -12.6
09 18.01 Ю 3 4000 м слаб. снег 10/10 100 м
[]
-12.6 -13.9 90 -18 -18 1006.0 942.1
12 18.01 Ю 2 4800 м дымка 10/10 100 м
[]
-11.2 -12.4 91 -15 -15 1004.2 940.4 -14.6 -12.6
15 18.01 ЮВ 2 1600 м дымка н/о -10.1 -11.3 91 -14 -14 1001.7 938.1
18 18.01 В 3 14 км 10/10 100 м
[]
-8.7 -9.8 92 -14 -14 999.6 936.3 -15.7 -8.7
21 18.01 В 3 12 км 10/10 100 м
[]
-7.8 -8.7 93 -14 -14 997.3 934.2

 

Местоположение метеостанции Dubawnt Lake (Канада): широта 63.23 долгота -101.70 высота над уровнем моря 237 м.

В архиве по умолчанию представлена погода в Dubawnt Lake за последнюю неделю. Архивные данные за месяц целиком и за предыдущие месяцы, начиная с января 2011 года, Вы можете получить, выбрав интересующий диапазон дат из раскрывающегося списка и нажав кнопку "Ввод!".

Внимание! Время в таблицах - всемирное. Для получения местного времени необходимо прибавить поправку, которая в Dubawnt Lake равна -6 ч.

Смотрите также архив погоды в соседних городах и на ближайших метеорологических станциях:

Погода в Hanbury River ARS (Канада) (176 км)
Погода в Robertson Lake (Канада) (211 км)
Погода в Baker Lake Airport (Канада) (302 км)
Погода в Baker Lake Climate (Канада) (305 км)
Погода в Fort Reliance (aut) (Канада) (379 км)
Погода в Porter Lake (Канада) (387 км)
Погода в Back River MAPS (Канада) (402 км)
Погода в Lustel Ke A (Канада) (461 км)
Погода в Arviat Climate (Канада) (462 км)
Погода в Arviat (Канада) (462 км)

Пояснения к столбцам:

Ветер - указаны скорость ветра в м/с - средняя за 10 мин, порывы в срок и между сроками (в фигурных скобках) и направление, откуда дует ветер: С - северный, СВ - северо-восточный, В - восточный, ЮВ - юго-восточный, Ю - южный, ЮЗ - юго-западный, З - западный, СЗ - северо-западный.
Видимость - горизонтальная дальность видимости в метрах или километрах. При видимости от 1 до 10 км при отсутствии осадков обычно наблюдается дымка, при ухудшении видимости до 1 км и менее - туман. В сухую погоду видимость может ухудшаться дымом, пылью или мглою.
Явления - указаны атмосферные явления, наблюдавшиеся в срок или в последний час перед сроком; фигурными скобками обозначены явления, наблюдавшиеся между сроками (за 1-3 часа до срока); квадратными скобками обозначены град или гололедные отложения с указанием их диаметра в мм.
Облачность - указаны через наклонную черту общая и нижняя облачность в баллах и высота нижней границы облаков в метрах; квадратными скобками обозначены формы облаков: Ci - перистые, Cs - перисто-слоистые, Cc - перисто-кучевые, Ac - высококучевые, As - высокослоистые, Sc - слоисто-кучевые, Ns - слоисто-дождевые, Cu - кучевые, Cb - кучево-дождевые. Подробнее классификацию облаков см. в Атласе облаков (PDF).
T - Температура воздуха - температура, измеренная на высоте 2 м над землей.
Td - Температура точки росы - температура, при понижении до которой содержащийся в воздухе водяной пар достигнет насыщения.
f - Относительная влажность воздуха - влажноcть воздуха, измеренная на высоте 2 м над землей.
Te - Эффективная температура - температура, которую ощущает одетый по сезону человек в тени. Характеристика душности погоды. При расчете учитывается влияние влажности воздуха и скорости ветра на теплоощущения человека.
Tes - Эффективная температура на солнце - температура, которую ощущает человек, с поправкой на солнечный нагрев. Характеристика знойности погоды. Зависит от высоты солнца над горизонтом, облачности и скорости ветра. Ночью, в пасмурную погоду, а также при ветре 12 м/с и более поправка равна нулю.
P - Атмосферное давление - приведенное к уровню моря атмосферное давление.
Po - Атмосферное давление - измеренное на уровне метеостанции атмосферное давление.
Tmin - Минимальная температура - минимум температуры воздуха на высоте 2 м над землей.
Tmax - Максимальная температура - максимум температуры воздуха на высоте 2 м над землей.
R - Количество осадков - Количество выпавших осадков за период времени, мм. При наведении курсора мыши на число - период времени, за который выпало указанное количество осадков.
R24 - Количество осадков - Количество выпавших осадков за 24 часа, мм.
S - Снежный покров - Высота снежного покрова, см. При наведении курсора мыши на число - состояние снежного покрова и степень покрытия местности в баллах.